Toms River, NJ

3:52 PM EST on December 15, 2019 (GMT -0500)
Miller

Weather History for KMJX - November, 2019

Change the Weather History Date:

Tuesday, November 19, 2019

  Actual Average Record
Temperature  
Mean Temperature 44 °F -  
Max Temperature 52 °F 55 °F 74 °F (1963)
Min Temperature 37 °F 31 °F 17 °F (1959)
Degree Days  
Heating Degree Days 20    
Moisture  
Dew Point 42 °F    
Average Humidity 81    
Maximum Humidity 100    
Minimum Humidity 66    
Precipitation  
Precipitation 0.04 in - - ()
Sea Level Pressure  
Sea Level Pressure 29.81 in    
Wind  
Wind Speed 4 mph (West)    
Max Wind Speed 10 mph    
Max Gust Speed -    
Visibility 6 miles    
Events Fog , Rain    
Averages and records for this station are not official NWS values.
T = Trace of Precipitation, MM = Missing Value Source: NWS Daily Summary

Daily Weather History Graph

Daily Weather History Graph

Search for Another Location

Airport or City:

Astronomy

Nov. 19, 2019 Rise Set
Actual Time 6:46 AM EST 4:38 PM EST
Civil Twilight 6:17 AM EST 5:07 PM EST
Nautical Twilight 5:44 AM EST 5:40 PM EST
Astronomical Twilight 5:12 AM EST 6:12 PM EST
Moon 11:30 PM EST (11/19) 12:55 PM EST (11/19)
Length of Visible Light 10h 50m
Length of Day
9h 51m
Waning Gibbous, 52% of the Moon is Illuminated
Nov 19
Waning Gibbous
Nov 19
Last Quarter
Nov 26
New
Dec 4
First Quarter
Dec 12
Full

Hourly Weather History & Observations

Time (EST) Temp. Windchill Dew Point Humidity Pressure Visibility Wind Dir Wind Speed Gust Speed Precip Events Conditions
12:20 AM - - - N/A% 29.73 in 10.0 mi West 3.5 mph - 0.00 in Rain Light Rain
12:56 AM - - - N/A% 29.73 in 8.0 mi WSW 5.8 mph - 0.01 in   Overcast
1:56 AM - - - N/A% 29.74 in 6.0 mi West 6.9 mph - 0.03 in   Haze
2:56 AM - - - N/A% 29.74 in 5.0 mi West 4.6 mph - N/A   Haze
3:56 AM - - - N/A% 29.74 in 4.0 mi Calm Calm - N/A   Haze
4:51 AM - - - N/A% - 4.0 mi Calm Calm - N/A   Haze
4:56 AM - - - N/A% 29.76 in 4.0 mi Calm Calm - N/A   Haze
5:52 AM - - - N/A% 29.77 in 5.0 mi SW 3.5 mph - N/A   Haze
5:56 AM - - - N/A% 29.77 in 5.0 mi SW 4.6 mph - N/A   Haze
6:47 AM - - - N/A% 29.79 in 2.0 mi Calm Calm - N/A   Scattered Clouds
6:56 AM - - - N/A% 29.79 in 1.5 mi Calm Calm - N/A   Partly Cloudy
6:58 AM - - - N/A% 29.79 in 0.8 mi Calm Calm - N/A   Partly Cloudy
7:03 AM - - - N/A% 29.79 in 0.2 mi Calm Calm - N/A Fog Fog
7:13 AM - - - N/A% 29.80 in 0.2 mi Calm Calm - N/A Fog Fog
7:41 AM - - - N/A% 29.80 in 0.8 mi Calm Calm - N/A   Mist
7:44 AM - - - N/A% 29.80 in 1.2 mi Calm Calm - N/A   Partly Cloudy
7:56 AM - - - N/A% 29.81 in 2.0 mi SSW 5.8 mph - N/A   Clear
8:10 AM - - - N/A% 29.81 in 2.5 mi SSW 4.6 mph - N/A   Partly Cloudy
8:35 AM - - - N/A% 29.81 in 3.0 mi West 6.9 mph - N/A   Partly Cloudy
8:56 AM - - - N/A% 29.82 in 5.0 mi WSW 6.9 mph - N/A   Haze
9:09 AM 44.6 °F 40.7 °F - N/A% 29.82 in 7.0 mi West 6.9 mph - N/A   Partly Cloudy
9:34 AM 44.6 °F 39.7 °F - N/A% 29.82 in 8.0 mi WNW 9.2 mph - N/A   Mostly Cloudy
9:56 AM 45.0 °F 39.7 °F - N/A% 29.82 in 8.0 mi WNW 10.4 mph - N/A   Overcast
10:56 AM 46.9 °F - 46.0 °F 97% 29.81 in 10.0 mi West 10.4 mph - N/A   Mostly Cloudy
11:29 AM 46.4 °F 41.9 °F 44.6 °F 93% 29.80 in 10.0 mi WNW 9.2 mph - N/A   Scattered Clouds
11:56 AM 48.0 °F - 43.0 °F 83% 29.80 in 10.0 mi West 9.2 mph - N/A   Partly Cloudy
12:56 PM 51.1 °F - 41.0 °F 68% 29.79 in 10.0 mi Variable 6.9 mph - N/A   Clear
1:56 PM 52.0 °F - 41.0 °F 66% 29.79 in 10.0 mi WSW 9.2 mph - N/A   Clear
2:56 PM 51.1 °F - 39.9 °F 66% 29.80 in 10.0 mi West 9.2 mph - N/A   Clear
3:56 PM 46.9 °F - 39.0 °F 74% 29.81 in 10.0 mi North - - N/A   Clear
4:56 PM 44.1 °F - 44.1 °F 100% 29.83 in 10.0 mi Calm Calm - N/A   Clear
5:56 PM 44.1 °F 42.5 °F - N/A% 29.85 in 10.0 mi NW 3.5 mph - N/A   Clear
6:56 PM 39.9 °F - - N/A% 29.87 in 10.0 mi Calm Calm - N/A   Clear
7:56 PM 37.9 °F - - N/A% 29.87 in 10.0 mi Calm Calm - N/A   Clear
8:56 PM - - - N/A% 29.89 in 9.0 mi Calm Calm - N/A   Clear
9:56 PM - - - N/A% 29.88 in 10.0 mi Calm Calm - N/A   Scattered Clouds
10:56 PM 39.9 °F 35.8 °F - N/A% 29.88 in 10.0 mi NW 5.8 mph - N/A   Clear
11:56 PM 39.0 °F 35.7 °F - N/A% 29.88 in 10.0 mi NW 4.6 mph - N/A   Clear